Year,Month,Day,Hour,Minute,Value (Times are PST for temperature in C)
2018,05,14,00,00,15.70
2018,05,14,00,01,15.70
2018,05,14,00,02,15.70
2018,05,14,00,03,15.70
2018,05,14,00,04,15.70
2018,05,14,00,05,15.70
2018,05,14,00,06,15.70
2018,05,14,00,07,15.70
2018,05,14,00,08,15.70
2018,05,14,00,09,15.70
2018,05,14,00,10,15.80
2018,05,14,00,11,15.70
2018,05,14,00,12,15.70
2018,05,14,00,13,15.70
2018,05,14,00,14,15.70
2018,05,14,00,15,15.70
2018,05,14,00,16,15.70
2018,05,14,00,17,15.70
2018,05,14,00,18,15.60
2018,05,14,00,19,15.60
2018,05,14,00,20,15.50
2018,05,14,00,21,15.50
2018,05,14,00,22,15.40
2018,05,14,00,23,15.40
2018,05,14,00,24,15.30
2018,05,14,00,25,15.30
2018,05,14,00,26,15.30
2018,05,14,00,27,15.30
2018,05,14,00,28,15.30
2018,05,14,00,29,15.30
2018,05,14,00,30,15.20
2018,05,14,00,31,15.20
2018,05,14,00,32,15.20
2018,05,14,00,33,15.20
2018,05,14,00,34,15.20
2018,05,14,00,35,15.20
2018,05,14,00,36,15.20
2018,05,14,00,37,15.10
2018,05,14,00,38,15.10
2018,05,14,00,39,15.10
2018,05,14,00,40,15.10
2018,05,14,00,41,15.00
2018,05,14,00,42,15.00
2018,05,14,00,43,14.90
2018,05,14,00,44,14.90
2018,05,14,00,45,14.80
2018,05,14,00,46,14.80
2018,05,14,00,47,14.80
2018,05,14,00,48,14.70
2018,05,14,00,49,14.70
2018,05,14,00,50,14.70
2018,05,14,00,51,14.70
2018,05,14,00,52,14.60
2018,05,14,00,53,14.60
2018,05,14,00,54,14.60
2018,05,14,00,55,14.60
2018,05,14,00,56,14.50
2018,05,14,00,57,14.50
2018,05,14,00,58,14.50
2018,05,14,00,59,14.40
2018,05,14,01,00,14.40
2018,05,14,01,01,14.40
2018,05,14,01,02,14.40
2018,05,14,01,03,14.40
2018,05,14,01,04,14.40
2018,05,14,01,05,14.40
2018,05,14,01,06,14.40
2018,05,14,01,07,14.40
2018,05,14,01,08,14.40
2018,05,14,01,09,14.40
2018,05,14,01,10,14.40
2018,05,14,01,11,14.40
2018,05,14,01,12,14.40
2018,05,14,01,13,14.40
2018,05,14,01,14,14.40
2018,05,14,01,15,14.40
2018,05,14,01,16,14.30
2018,05,14,01,17,14.30
2018,05,14,01,18,14.30
2018,05,14,01,19,14.20
2018,05,14,01,20,14.20
2018,05,14,01,21,14.20
2018,05,14,01,22,14.20
2018,05,14,01,23,14.10
2018,05,14,01,24,14.10
2018,05,14,01,25,14.10
2018,05,14,01,26,14.10
2018,05,14,01,27,14.10
2018,05,14,01,28,14.00
2018,05,14,01,29,14.00
2018,05,14,01,30,14.00
2018,05,14,01,31,14.00
2018,05,14,01,32,13.90
2018,05,14,01,33,13.90
2018,05,14,01,34,13.90
2018,05,14,01,35,13.90
2018,05,14,01,36,13.90
2018,05,14,01,37,13.90
2018,05,14,01,38,13.90
2018,05,14,01,39,13.90
2018,05,14,01,40,13.90
2018,05,14,01,41,13.90
2018,05,14,01,42,13.90
2018,05,14,01,43,13.90
2018,05,14,01,44,13.90
2018,05,14,01,45,13.90
2018,05,14,01,46,13.80
2018,05,14,01,47,13.80
2018,05,14,01,48,13.80
2018,05,14,01,49,13.80
2018,05,14,01,50,13.80
2018,05,14,01,51,13.80
2018,05,14,01,52,13.80
2018,05,14,01,53,13.80
2018,05,14,01,54,13.80
2018,05,14,01,55,13.80
2018,05,14,01,56,13.70
2018,05,14,01,57,13.70
2018,05,14,01,58,13.70
2018,05,14,01,59,13.70
2018,05,14,02,00,13.70
2018,05,14,02,01,13.70
2018,05,14,02,02,13.70
2018,05,14,02,03,13.70
2018,05,14,02,04,13.60
2018,05,14,02,05,13.60
2018,05,14,02,06,13.60
2018,05,14,02,07,13.60
2018,05,14,02,08,13.60
2018,05,14,02,09,13.60
2018,05,14,02,10,13.60
2018,05,14,02,11,13.60
2018,05,14,02,12,13.60
2018,05,14,02,13,13.60
2018,05,14,02,14,13.60
2018,05,14,02,15,13.60
2018,05,14,02,16,13.50
2018,05,14,02,17,13.50
2018,05,14,02,18,13.50
2018,05,14,02,19,13.60
2018,05,14,02,20,13.60
2018,05,14,02,21,13.60
2018,05,14,02,22,13.60
2018,05,14,02,23,13.60
2018,05,14,02,24,13.60
2018,05,14,02,25,13.60
2018,05,14,02,26,13.60
2018,05,14,02,27,13.60
2018,05,14,02,28,13.60
2018,05,14,02,29,13.60
2018,05,14,02,30,13.60
2018,05,14,02,31,13.60
2018,05,14,02,32,13.60
2018,05,14,02,33,13.60
2018,05,14,02,34,13.60
2018,05,14,02,35,13.60
2018,05,14,02,36,13.60
2018,05,14,02,37,13.70
2018,05,14,02,38,13.70
2018,05,14,02,39,13.70
2018,05,14,02,40,13.60
2018,05,14,02,41,13.60
2018,05,14,02,42,13.60
2018,05,14,02,43,13.50
2018,05,14,02,44,13.40
2018,05,14,02,45,13.40
2018,05,14,02,46,13.30
2018,05,14,02,47,13.30
2018,05,14,02,48,13.20
2018,05,14,02,49,13.20
2018,05,14,02,50,13.10
2018,05,14,02,51,13.10
2018,05,14,02,52,13.10
2018,05,14,02,53,13.10
2018,05,14,02,54,13.00
2018,05,14,02,55,13.00
2018,05,14,02,56,13.00
2018,05,14,02,57,12.90
2018,05,14,02,58,12.90
2018,05,14,02,59,12.90
2018,05,14,03,00,12.90
2018,05,14,03,01,12.90
2018,05,14,03,02,12.90
2018,05,14,03,03,12.90
2018,05,14,03,04,12.90
2018,05,14,03,05,12.90
2018,05,14,03,06,12.90
2018,05,14,03,07,12.90
2018,05,14,03,08,12.90
2018,05,14,03,09,12.90
2018,05,14,03,10,12.90
2018,05,14,03,11,12.90
2018,05,14,03,12,12.90
2018,05,14,03,13,12.90
2018,05,14,03,14,12.90
2018,05,14,03,15,12.90
2018,05,14,03,16,12.90
2018,05,14,03,17,12.90
2018,05,14,03,18,12.90
2018,05,14,03,19,12.90
2018,05,14,03,20,12.90
2018,05,14,03,21,12.90
2018,05,14,03,22,12.90
2018,05,14,03,23,12.90
2018,05,14,03,24,12.90
2018,05,14,03,25,12.90
2018,05,14,03,26,12.90
2018,05,14,03,27,12.90
2018,05,14,03,28,12.80
2018,05,14,03,29,12.80
2018,05,14,03,30,12.80
2018,05,14,03,31,12.80
2018,05,14,03,32,12.80
2018,05,14,03,33,12.80
2018,05,14,03,34,12.80
2018,05,14,03,35,12.80
2018,05,14,03,36,12.80
2018,05,14,03,37,12.70
2018,05,14,03,38,12.70
2018,05,14,03,39,12.70
2018,05,14,03,40,12.70
2018,05,14,03,41,12.70
2018,05,14,03,42,12.70
2018,05,14,03,43,12.70
2018,05,14,03,44,12.70
2018,05,14,03,45,12.70
2018,05,14,03,46,12.70
2018,05,14,03,47,12.70
2018,05,14,03,48,12.70
2018,05,14,03,49,12.70
2018,05,14,03,50,12.70
2018,05,14,03,51,12.70
2018,05,14,03,52,12.70
2018,05,14,03,53,12.70
2018,05,14,03,54,12.60
2018,05,14,03,55,12.60
2018,05,14,03,56,12.60
2018,05,14,03,57,12.60
2018,05,14,03,58,12.60
2018,05,14,03,59,12.60
2018,05,14,04,00,12.60
2018,05,14,04,01,12.60
2018,05,14,04,02,12.50
2018,05,14,04,03,12.50
2018,05,14,04,04,12.50
2018,05,14,04,05,12.50
2018,05,14,04,06,12.50
2018,05,14,04,07,12.50
2018,05,14,04,08,12.50
2018,05,14,04,09,12.50
2018,05,14,04,10,12.50
2018,05,14,04,11,12.50
2018,05,14,04,12,12.50
2018,05,14,04,13,12.50
2018,05,14,04,14,12.50
2018,05,14,04,15,12.40
2018,05,14,04,16,12.40
2018,05,14,04,17,12.40
2018,05,14,04,18,12.40
2018,05,14,04,19,12.40
2018,05,14,04,20,12.40
2018,05,14,04,21,12.30
2018,05,14,04,22,12.30
2018,05,14,04,23,12.30
2018,05,14,04,24,12.30
2018,05,14,04,25,12.30
2018,05,14,04,26,12.30
2018,05,14,04,27,12.30
2018,05,14,04,28,12.30
2018,05,14,04,29,12.30
2018,05,14,04,30,12.30
2018,05,14,04,31,12.30
2018,05,14,04,32,12.30
2018,05,14,04,33,12.20
2018,05,14,04,34,12.20
2018,05,14,04,35,12.30
2018,05,14,04,36,12.30
2018,05,14,04,37,12.30
2018,05,14,04,38,12.30
2018,05,14,04,39,12.30
2018,05,14,04,40,12.30
2018,05,14,04,41,12.30
2018,05,14,04,42,12.30
2018,05,14,04,43,12.30
2018,05,14,04,44,12.30
2018,05,14,04,45,12.30
2018,05,14,04,46,12.20
2018,05,14,04,47,12.20
2018,05,14,04,48,12.20
2018,05,14,04,49,12.20
2018,05,14,04,50,12.20
2018,05,14,04,51,12.20
2018,05,14,04,52,12.20
2018,05,14,04,53,12.20
2018,05,14,04,54,12.10
2018,05,14,04,55,12.10
2018,05,14,04,56,12.10
2018,05,14,04,57,12.10
2018,05,14,04,58,12.10
2018,05,14,04,59,12.10
2018,05,14,05,00,12.10
2018,05,14,05,01,12.10
2018,05,14,05,02,12.10
2018,05,14,05,03,12.10
2018,05,14,05,04,12.10
2018,05,14,05,05,12.00
2018,05,14,05,06,12.00
2018,05,14,05,07,12.00
2018,05,14,05,08,12.00
2018,05,14,05,09,12.00
2018,05,14,05,10,12.00
2018,05,14,05,11,12.00
2018,05,14,05,12,12.00
2018,05,14,05,13,12.00
2018,05,14,05,14,12.10
2018,05,14,05,15,12.10
2018,05,14,05,16,12.10
2018,05,14,05,17,12.10
2018,05,14,05,18,12.10
2018,05,14,05,19,12.10
2018,05,14,05,20,12.20
2018,05,14,05,21,12.20
2018,05,14,05,22,12.10
2018,05,14,05,23,12.10
2018,05,14,05,24,12.10
2018,05,14,05,25,12.10
2018,05,14,05,26,12.10
2018,05,14,05,27,12.10
2018,05,14,05,28,12.10
2018,05,14,05,29,12.10
2018,05,14,05,30,12.10
2018,05,14,05,31,12.10
2018,05,14,05,32,12.10
2018,05,14,05,33,12.10
2018,05,14,05,34,12.10
2018,05,14,05,35,12.10
2018,05,14,05,36,12.10
2018,05,14,05,37,12.10
2018,05,14,05,38,12.10
2018,05,14,05,39,12.10
2018,05,14,05,40,12.10
2018,05,14,05,41,12.10
2018,05,14,05,42,12.10
2018,05,14,05,43,12.10
2018,05,14,05,44,12.00
2018,05,14,05,45,12.00
2018,05,14,05,46,12.00
2018,05,14,05,47,12.00
2018,05,14,05,48,12.00
2018,05,14,05,49,12.00
2018,05,14,05,50,12.00
2018,05,14,05,51,12.00
2018,05,14,05,52,12.00
2018,05,14,05,53,12.00
2018,05,14,05,54,12.00
2018,05,14,05,55,12.00
2018,05,14,05,56,12.00
2018,05,14,05,57,12.00
2018,05,14,05,58,12.00
2018,05,14,05,59,12.00
2018,05,14,06,00,12.00
2018,05,14,06,01,12.00
2018,05,14,06,02,12.00
2018,05,14,06,03,12.00
2018,05,14,06,04,12.00
2018,05,14,06,05,11.90
2018,05,14,06,06,11.90
2018,05,14,06,07,11.90
2018,05,14,06,08,11.90
2018,05,14,06,09,11.90
2018,05,14,06,10,12.00
2018,05,14,06,11,12.00
2018,05,14,06,12,12.00
2018,05,14,06,13,12.00
2018,05,14,06,14,12.10
2018,05,14,06,15,12.10
2018,05,14,06,16,12.10
2018,05,14,06,17,12.10
2018,05,14,06,18,12.10
2018,05,14,06,19,12.10
2018,05,14,06,20,12.20
2018,05,14,06,21,12.20
2018,05,14,06,22,12.20
2018,05,14,06,23,12.20
2018,05,14,06,24,12.20
2018,05,14,06,25,12.30
2018,05,14,06,26,12.30
2018,05,14,06,27,12.30
2018,05,14,06,28,12.40
2018,05,14,06,29,12.40
2018,05,14,06,30,12.40
2018,05,14,06,31,12.50
2018,05,14,06,32,12.50
2018,05,14,06,33,12.60
2018,05,14,06,34,12.60
2018,05,14,06,35,12.60
2018,05,14,06,36,12.70
2018,05,14,06,37,12.70
2018,05,14,06,38,12.70
2018,05,14,06,39,12.70
2018,05,14,06,40,12.80
2018,05,14,06,41,12.80
2018,05,14,06,42,12.80
2018,05,14,06,43,12.80
2018,05,14,06,44,12.90
2018,05,14,06,45,12.90
2018,05,14,06,46,13.00
2018,05,14,06,47,13.00
2018,05,14,06,48,13.10
2018,05,14,06,49,13.10
2018,05,14,06,50,13.20
2018,05,14,06,51,13.20
2018,05,14,06,52,13.30
2018,05,14,06,53,13.30
2018,05,14,06,54,13.30
2018,05,14,06,55,13.40
2018,05,14,06,56,13.40
2018,05,14,06,57,13.50
2018,05,14,06,58,13.50
2018,05,14,06,59,13.60
2018,05,14,07,00,13.60
2018,05,14,07,01,13.70
2018,05,14,07,02,13.70
2018,05,14,07,03,13.80
2018,05,14,07,04,13.80
2018,05,14,07,05,13.90
2018,05,14,07,06,14.00
2018,05,14,07,07,14.10
2018,05,14,07,08,14.20
2018,05,14,07,09,14.30
2018,05,14,07,10,14.30
2018,05,14,07,11,14.40
2018,05,14,07,12,14.50
2018,05,14,07,13,14.50
2018,05,14,07,14,14.60
2018,05,14,07,15,14.70
2018,05,14,07,16,14.70
2018,05,14,07,17,14.80
2018,05,14,07,18,14.90
2018,05,14,07,19,15.00
2018,05,14,07,20,15.10
2018,05,14,07,21,15.20
2018,05,14,07,22,15.20
2018,05,14,07,23,15.30
2018,05,14,07,24,15.40
2018,05,14,07,25,15.50
2018,05,14,07,26,15.50
2018,05,14,07,27,15.60
2018,05,14,07,28,15.60
2018,05,14,07,29,15.70
2018,05,14,07,30,15.80
2018,05,14,07,31,15.80
2018,05,14,07,32,15.90
2018,05,14,07,33,16.00
2018,05,14,07,34,16.10
2018,05,14,07,35,16.20
2018,05,14,07,36,16.30
2018,05,14,07,37,16.30
2018,05,14,07,38,16.40
2018,05,14,07,39,16.60
2018,05,14,07,40,16.70
2018,05,14,07,41,16.80
2018,05,14,07,42,17.00
2018,05,14,07,43,17.10
2018,05,14,07,44,17.30
2018,05,14,07,45,17.40
2018,05,14,07,46,17.40
2018,05,14,07,47,17.50
2018,05,14,07,48,17.60
2018,05,14,07,49,17.70
2018,05,14,07,50,17.80
2018,05,14,07,51,17.90
2018,05,14,07,52,18.00
2018,05,14,07,53,18.10
2018,05,14,07,54,18.20
2018,05,14,07,55,18.40
2018,05,14,07,56,18.50
2018,05,14,07,57,18.60
2018,05,14,07,58,18.70
2018,05,14,07,59,18.80
2018,05,14,08,00,18.90
2018,05,14,08,01,19.00
2018,05,14,08,02,19.10
2018,05,14,08,03,19.20
2018,05,14,08,04,19.30
2018,05,14,08,05,19.40
2018,05,14,08,06,19.40
2018,05,14,08,07,19.50
2018,05,14,08,08,19.50
2018,05,14,08,09,19.50
2018,05,14,08,10,19.50
2018,05,14,08,11,19.50
2018,05,14,08,12,19.50
2018,05,14,08,13,19.40
2018,05,14,08,14,19.30
2018,05,14,08,15,19.30
2018,05,14,08,16,19.20
2018,05,14,08,17,19.20
2018,05,14,08,18,19.20
2018,05,14,08,19,19.20
2018,05,14,08,20,19.20
2018,05,14,08,21,19.30
2018,05,14,08,22,19.30
2018,05,14,08,23,19.30
2018,05,14,08,24,19.30
2018,05,14,08,25,19.40
2018,05,14,08,26,19.40
2018,05,14,08,27,19.50
2018,05,14,08,28,19.50
2018,05,14,08,29,19.60
2018,05,14,08,30,19.70
2018,05,14,08,31,19.80
2018,05,14,08,32,19.80
2018,05,14,08,33,19.90
2018,05,14,08,34,19.90
2018,05,14,08,35,19.90
2018,05,14,08,36,19.90
2018,05,14,08,37,19.80
2018,05,14,08,38,19.90
2018,05,14,08,39,19.90
2018,05,14,08,40,20.00
2018,05,14,08,41,20.00
2018,05,14,08,42,20.00
2018,05,14,08,43,19.90
2018,05,14,08,44,19.90
2018,05,14,08,45,19.90
2018,05,14,08,46,19.90
2018,05,14,08,47,19.90
2018,05,14,08,48,20.00
2018,05,14,08,49,20.00
2018,05,14,08,50,20.00
2018,05,14,08,51,20.00
2018,05,14,08,52,20.10
2018,05,14,08,53,20.10
2018,05,14,08,54,20.00
2018,05,14,08,55,20.00
2018,05,14,08,56,19.90
2018,05,14,08,57,19.90
2018,05,14,08,58,19.90
2018,05,14,08,59,19.80
2018,05,14,09,00,19.80
2018,05,14,09,01,19.80
2018,05,14,09,02,19.70
2018,05,14,09,03,19.70
2018,05,14,09,04,19.70
2018,05,14,09,05,19.80
2018,05,14,09,06,19.90
2018,05,14,09,07,20.00
2018,05,14,09,08,20.20
2018,05,14,09,09,20.30
2018,05,14,09,10,20.40
2018,05,14,09,11,20.50
2018,05,14,09,12,20.60
2018,05,14,09,13,20.70
2018,05,14,09,14,20.70
2018,05,14,09,15,20.80
2018,05,14,09,16,20.80
2018,05,14,09,17,20.90
2018,05,14,09,18,20.90
2018,05,14,09,19,21.00
2018,05,14,09,20,21.00
2018,05,14,09,21,21.10
2018,05,14,09,22,21.20
2018,05,14,09,23,21.30
2018,05,14,09,24,21.30
2018,05,14,09,25,21.30
2018,05,14,09,26,21.40
2018,05,14,09,27,21.40
2018,05,14,09,28,21.50
2018,05,14,09,29,21.60
2018,05,14,09,30,21.70
2018,05,14,09,31,21.70
2018,05,14,09,32,21.70
2018,05,14,09,33,21.70
2018,05,14,09,34,21.70
2018,05,14,09,35,21.70
2018,05,14,09,36,21.70
2018,05,14,09,37,21.80
2018,05,14,09,38,21.90
2018,05,14,09,39,22.00
2018,05,14,09,40,22.10
2018,05,14,09,41,22.20
2018,05,14,09,42,22.20
2018,05,14,09,43,22.30
2018,05,14,09,44,22.30
2018,05,14,09,45,22.40
2018,05,14,09,46,22.40
2018,05,14,09,47,22.30
2018,05,14,09,48,22.30
2018,05,14,09,49,22.20
2018,05,14,09,50,22.10
2018,05,14,09,51,22.10
2018,05,14,09,52,22.00
2018,05,14,09,53,21.90
2018,05,14,09,54,21.80
2018,05,14,09,55,21.80
2018,05,14,09,56,21.70
2018,05,14,09,57,21.70
2018,05,14,09,58,21.80
2018,05,14,09,59,21.90
2018,05,14,10,00,22.00
2018,05,14,10,01,22.10
2018,05,14,10,02,22.30
2018,05,14,10,03,22.40
2018,05,14,10,04,22.50
2018,05,14,10,05,22.60
2018,05,14,10,06,22.50
2018,05,14,10,07,22.40
2018,05,14,10,08,22.40
2018,05,14,10,09,22.30
2018,05,14,10,10,22.20
2018,05,14,10,11,22.10
2018,05,14,10,12,22.10
2018,05,14,10,13,22.20
2018,05,14,10,14,22.20
2018,05,14,10,15,22.20
2018,05,14,10,16,22.20
2018,05,14,10,17,22.30
2018,05,14,10,18,22.30
2018,05,14,10,19,22.40
2018,05,14,10,20,22.40
2018,05,14,10,21,22.40
2018,05,14,10,22,22.30
2018,05,14,10,23,22.30
2018,05,14,10,24,22.20
2018,05,14,10,25,22.20
2018,05,14,10,26,22.20
2018,05,14,10,27,22.20
2018,05,14,10,28,22.20
2018,05,14,10,29,22.20
2018,05,14,10,30,22.30
2018,05,14,10,31,22.30
2018,05,14,10,32,22.30
2018,05,14,10,33,22.30
2018,05,14,10,34,22.30
2018,05,14,10,35,22.30
2018,05,14,10,36,22.30
2018,05,14,10,37,22.20
2018,05,14,10,38,22.30
2018,05,14,10,39,22.30
2018,05,14,10,40,22.50
2018,05,14,10,41,22.60
2018,05,14,10,42,22.80
2018,05,14,10,43,22.90
2018,05,14,10,44,23.00
2018,05,14,10,45,23.10
2018,05,14,10,46,23.20
2018,05,14,10,47,23.30
2018,05,14,10,48,23.40
2018,05,14,10,49,23.30
2018,05,14,10,50,23.30
2018,05,14,10,51,23.30
2018,05,14,10,52,23.30
2018,05,14,10,53,23.30
2018,05,14,10,54,23.30
2018,05,14,10,55,23.30
2018,05,14,10,56,23.30
2018,05,14,10,57,23.30
2018,05,14,10,58,23.30
2018,05,14,10,59,23.30
2018,05,14,11,00,23.40
2018,05,14,11,01,23.40
2018,05,14,11,02,23.50
2018,05,14,11,03,23.50
2018,05,14,11,04,23.50
2018,05,14,11,05,23.40
2018,05,14,11,06,23.40
2018,05,14,11,07,23.40
2018,05,14,11,08,23.40
2018,05,14,11,09,23.30
2018,05,14,11,10,23.10
2018,05,14,11,11,23.10
2018,05,14,11,12,23.10
2018,05,14,11,13,23.00
2018,05,14,11,14,23.10
2018,05,14,11,15,23.20
2018,05,14,11,16,23.20
2018,05,14,11,17,23.20
2018,05,14,11,18,23.20
2018,05,14,11,19,23.20
2018,05,14,11,20,23.10
2018,05,14,11,21,23.00
2018,05,14,11,22,22.90
2018,05,14,11,23,22.80
2018,05,14,11,24,22.70
2018,05,14,11,25,22.60
2018,05,14,11,26,22.50
2018,05,14,11,27,22.60
2018,05,14,11,28,22.80
2018,05,14,11,29,22.90
2018,05,14,11,30,23.10
2018,05,14,11,31,23.30
2018,05,14,11,32,23.40
2018,05,14,11,33,23.50
2018,05,14,11,34,23.50
2018,05,14,11,35,23.50
2018,05,14,11,36,23.50
2018,05,14,11,37,23.40
2018,05,14,11,38,23.40
2018,05,14,11,39,23.40
2018,05,14,11,40,23.30
2018,05,14,11,41,23.30
2018,05,14,11,42,23.40
2018,05,14,11,43,23.50
2018,05,14,11,44,23.50
2018,05,14,11,45,23.60
2018,05,14,11,46,23.60
2018,05,14,11,47,23.60
2018,05,14,11,48,23.60
2018,05,14,11,49,23.70
2018,05,14,11,50,23.80
2018,05,14,11,51,23.90
2018,05,14,11,52,23.90
2018,05,14,11,53,24.00
2018,05,14,11,54,24.10
2018,05,14,11,55,24.20
2018,05,14,11,56,24.10
2018,05,14,11,57,23.90
2018,05,14,11,58,23.80
2018,05,14,11,59,23.70
2018,05,14,12,00,23.70
2018,05,14,12,01,23.70
2018,05,14,12,02,23.80
2018,05,14,12,03,23.80
2018,05,14,12,04,23.90
2018,05,14,12,05,24.00
2018,05,14,12,06,24.10
2018,05,14,12,07,24.20
2018,05,14,12,08,24.30
2018,05,14,12,09,24.40
2018,05,14,12,10,24.50
2018,05,14,12,11,24.60
2018,05,14,12,12,24.60
2018,05,14,12,13,24.70
2018,05,14,12,14,24.70
2018,05,14,12,15,24.80
2018,05,14,12,16,24.80
2018,05,14,12,17,24.80
2018,05,14,12,18,24.80
2018,05,14,12,19,24.90
2018,05,14,12,20,25.00
2018,05,14,12,21,25.00
2018,05,14,12,22,25.10
2018,05,14,12,23,25.10
2018,05,14,12,24,25.20
2018,05,14,12,25,25.20
2018,05,14,12,26,25.20
2018,05,14,12,27,25.20
2018,05,14,12,28,25.20
2018,05,14,12,29,25.20
2018,05,14,12,30,25.20
2018,05,14,12,31,25.20
2018,05,14,12,32,25.10
2018,05,14,12,33,25.00
2018,05,14,12,34,24.90
2018,05,14,12,35,24.90
2018,05,14,12,36,24.90
2018,05,14,12,37,24.90
2018,05,14,12,38,24.90
2018,05,14,12,39,24.80
2018,05,14,12,40,24.90
2018,05,14,12,41,24.90
2018,05,14,12,42,24.90
2018,05,14,12,43,25.00
2018,05,14,12,44,25.00
2018,05,14,12,45,25.00
2018,05,14,12,46,25.00
2018,05,14,12,47,25.10
2018,05,14,12,48,25.10
2018,05,14,12,49,25.20
2018,05,14,12,50,25.20
2018,05,14,12,51,25.20
2018,05,14,12,52,25.20
2018,05,14,12,53,25.10
2018,05,14,12,54,25.10
2018,05,14,12,55,25.00
2018,05,14,12,56,24.90
2018,05,14,12,57,24.90
2018,05,14,12,58,24.80
2018,05,14,12,59,24.90
2018,05,14,13,00,24.80
2018,05,14,13,01,24.80
2018,05,14,13,02,24.80
2018,05,14,13,03,24.70
2018,05,14,13,04,24.80
2018,05,14,13,05,25.00
2018,05,14,13,06,25.10
2018,05,14,13,07,25.10
2018,05,14,13,08,25.10
2018,05,14,13,09,25.10
2018,05,14,13,10,25.00
2018,05,14,13,11,25.00
2018,05,14,13,12,24.90
2018,05,14,13,13,24.80
2018,05,14,13,14,24.80
2018,05,14,13,15,24.90
2018,05,14,13,16,25.00
2018,05,14,13,17,25.10
2018,05,14,13,18,25.10
2018,05,14,13,19,25.30
2018,05,14,13,20,25.30
2018,05,14,13,21,25.40
2018,05,14,13,22,25.40
2018,05,14,13,23,25.40
2018,05,14,13,24,25.30
2018,05,14,13,25,25.30
2018,05,14,13,26,25.30
2018,05,14,13,27,25.30
2018,05,14,13,28,25.40
2018,05,14,13,29,25.50
2018,05,14,13,30,25.50
2018,05,14,13,31,25.60
2018,05,14,13,32,25.70
2018,05,14,13,33,25.70
2018,05,14,13,34,25.80
2018,05,14,13,35,25.80
2018,05,14,13,36,25.90
2018,05,14,13,37,25.80
2018,05,14,13,38,25.70
2018,05,14,13,39,25.50
2018,05,14,13,40,25.40
2018,05,14,13,41,25.20
2018,05,14,13,42,25.20
2018,05,14,13,43,25.20
2018,05,14,13,44,25.20
2018,05,14,13,45,25.20
2018,05,14,13,46,25.30
2018,05,14,13,47,25.30
2018,05,14,13,48,25.30
2018,05,14,13,49,25.30
2018,05,14,13,50,25.40
2018,05,14,13,51,25.60
2018,05,14,13,52,25.60
2018,05,14,13,53,25.60
2018,05,14,13,54,25.50
2018,05,14,13,55,25.40
2018,05,14,13,56,25.30
2018,05,14,13,57,25.30
2018,05,14,13,58,25.30
2018,05,14,13,59,25.30
2018,05,14,14,00,25.40
2018,05,14,14,01,25.50
2018,05,14,14,02,25.70
2018,05,14,14,03,25.80
2018,05,14,14,04,25.80
2018,05,14,14,05,25.70
2018,05,14,14,06,25.70
2018,05,14,14,07,25.80
2018,05,14,14,08,25.80
2018,05,14,14,09,25.70
2018,05,14,14,10,25.80
2018,05,14,14,11,25.80
2018,05,14,14,12,25.90
2018,05,14,14,13,25.90
2018,05,14,14,14,26.00
2018,05,14,14,15,26.20
2018,05,14,14,16,26.20
2018,05,14,14,17,26.20
2018,05,14,14,18,26.20
2018,05,14,14,19,26.00
2018,05,14,14,20,25.90
2018,05,14,14,21,25.90
2018,05,14,14,22,25.80
2018,05,14,14,23,25.70
2018,05,14,14,24,25.70
2018,05,14,14,25,25.80
2018,05,14,14,26,25.90
2018,05,14,14,27,26.00
2018,05,14,14,28,26.00
2018,05,14,14,29,25.90
2018,05,14,14,30,25.90
2018,05,14,14,31,25.90
2018,05,14,14,32,26.00
2018,05,14,14,33,26.20
2018,05,14,14,34,26.30
2018,05,14,14,35,26.40
2018,05,14,14,36,26.60
2018,05,14,14,37,26.70
2018,05,14,14,38,26.70
2018,05,14,14,39,26.70
2018,05,14,14,40,26.70
2018,05,14,14,41,26.70
2018,05,14,14,42,26.70
2018,05,14,14,43,26.70
2018,05,14,14,44,26.70
2018,05,14,14,45,26.70
2018,05,14,14,46,26.70
2018,05,14,14,47,26.60
2018,05,14,14,48,26.40
2018,05,14,14,49,26.30
2018,05,14,14,50,26.30
2018,05,14,14,51,26.30
2018,05,14,14,52,26.20
2018,05,14,14,53,26.20
2018,05,14,14,54,26.20
2018,05,14,14,55,26.20
2018,05,14,14,56,26.20
2018,05,14,14,57,26.20
2018,05,14,14,58,26.30
2018,05,14,14,59,26.30
2018,05,14,15,00,26.40
2018,05,14,15,01,26.40
2018,05,14,15,02,26.50
2018,05,14,15,03,26.50
2018,05,14,15,04,26.60
2018,05,14,15,05,26.70
2018,05,14,15,06,26.80
2018,05,14,15,07,26.90
2018,05,14,15,08,27.00
2018,05,14,15,09,27.10
2018,05,14,15,10,27.10
2018,05,14,15,11,27.20
2018,05,14,15,12,27.30
2018,05,14,15,13,27.30
2018,05,14,15,14,27.40
2018,05,14,15,15,27.40
2018,05,14,15,16,27.40
2018,05,14,15,17,27.40
2018,05,14,15,18,27.30
2018,05,14,15,19,27.40
2018,05,14,15,20,27.40
2018,05,14,15,21,27.40
2018,05,14,15,22,27.50
2018,05,14,15,23,27.50
2018,05,14,15,24,27.50
2018,05,14,15,25,27.50
2018,05,14,15,26,27.50
2018,05,14,15,27,27.50
2018,05,14,15,28,27.40
2018,05,14,15,29,27.40
2018,05,14,15,30,27.30
2018,05,14,15,31,27.30
2018,05,14,15,32,27.30
2018,05,14,15,33,27.30
2018,05,14,15,34,27.30
2018,05,14,15,35,27.30
2018,05,14,15,36,27.30
2018,05,14,15,37,27.40
2018,05,14,15,38,27.40
2018,05,14,15,39,27.40
2018,05,14,15,40,27.40
2018,05,14,15,41,27.50
2018,05,14,15,42,27.50
2018,05,14,15,43,27.50
2018,05,14,15,44,27.50
2018,05,14,15,45,27.40
2018,05,14,15,46,27.40
2018,05,14,15,47,27.30
2018,05,14,15,48,27.30
2018,05,14,15,49,27.20
2018,05,14,15,50,27.20
2018,05,14,15,51,27.10
2018,05,14,15,52,27.00
2018,05,14,15,53,26.80
2018,05,14,15,54,26.70
2018,05,14,15,55,26.60
2018,05,14,15,56,26.60
2018,05,14,15,57,26.70
2018,05,14,15,58,26.70
2018,05,14,15,59,26.80
2018,05,14,16,00,26.80
2018,05,14,16,01,26.90
2018,05,14,16,02,26.90
2018,05,14,16,03,27.00
2018,05,14,16,04,27.00
2018,05,14,16,05,27.10
2018,05,14,16,06,27.20
2018,05,14,16,07,27.20
2018,05,14,16,08,27.30
2018,05,14,16,09,27.30
2018,05,14,16,10,27.30
2018,05,14,16,11,27.20
2018,05,14,16,12,27.20
2018,05,14,16,13,27.20
2018,05,14,16,14,27.10
2018,05,14,16,15,27.10
2018,05,14,16,16,27.10
2018,05,14,16,17,27.10
2018,05,14,16,18,27.10
2018,05,14,16,19,27.10
2018,05,14,16,20,27.10
2018,05,14,16,21,27.10
2018,05,14,16,22,27.00
2018,05,14,16,23,26.80
2018,05,14,16,24,26.70
2018,05,14,16,25,26.60
2018,05,14,16,26,26.60
2018,05,14,16,27,26.60
2018,05,14,16,28,26.60
2018,05,14,16,29,26.60
2018,05,14,16,30,26.60
2018,05,14,16,31,26.60
2018,05,14,16,32,26.70
2018,05,14,16,33,26.80
2018,05,14,16,34,26.80
2018,05,14,16,35,26.80
2018,05,14,16,36,26.80
2018,05,14,16,37,26.70
2018,05,14,16,38,26.70
2018,05,14,16,39,26.70
2018,05,14,16,40,26.70
2018,05,14,16,41,26.80
2018,05,14,16,42,26.80
2018,05,14,16,43,26.80
2018,05,14,16,44,26.80
2018,05,14,16,45,26.90
2018,05,14,16,46,26.90
2018,05,14,16,47,26.90
2018,05,14,16,48,26.90
2018,05,14,16,49,26.90
2018,05,14,16,50,26.80
2018,05,14,16,51,26.80
2018,05,14,16,52,26.70
2018,05,14,16,53,26.70
2018,05,14,16,54,26.60
2018,05,14,16,55,26.60
2018,05,14,16,56,26.50
2018,05,14,16,57,26.50
2018,05,14,16,58,26.50
2018,05,14,16,59,26.50
2018,05,14,17,00,26.40
2018,05,14,17,01,26.40
2018,05,14,17,02,26.40
2018,05,14,17,03,26.40
2018,05,14,17,04,26.40
2018,05,14,17,05,26.40
2018,05,14,17,06,26.40
2018,05,14,17,07,26.40
2018,05,14,17,08,26.50
2018,05,14,17,09,26.60
2018,05,14,17,10,26.70
2018,05,14,17,11,26.70
2018,05,14,17,12,26.70
2018,05,14,17,13,26.70
2018,05,14,17,14,26.70
2018,05,14,17,15,26.70
2018,05,14,17,16,26.70
2018,05,14,17,17,26.70
2018,05,14,17,18,26.70
2018,05,14,17,19,26.60